Regional Weather Roundup
Issued by NWS Northern Indiana

Home | Current Version | Previous Version | Text Only | Print | Product List | Glossary On
Versions: 1 2 3 4 5 6 7 8 9 10 11 12 13 14 15 16 17 18 19 20 21 22 23 24 25 26 27 28 29 30 31 32 33 34 35 36 37 38 39 40 41 42 43 44 45 46 47 48 49 50
000
ASUS43 KIWX 312110
RWRIWX

KIWX WEATHER ROUNDUP
NATIONAL WEATHER SERVICE NORTHERN INDIANA
500 PM EDT FRI JUL 31 2015

NOTE: "FAIR" INDICATES FEW OR NO CLOUDS BELOW 12,000 FEET WITH NO
SIGNIFICANT WEATHER AND/OR OBSTRUCTIONS TO VISIBILITY.

* THESE STATIONS ARE NOT UNDER NWS QUALITY CONTROL. THEY ALSO MAY NOT
  REPORT WEATHER SUCH AS PRECIPITATION OR FOG.

INZ001>027-312200-
NORTHERN INDIANA

CITY           SKY/WX    TMP DP  RH WIND       PRES   REMARKS
GARY*          MOSUNNY   88  52  29 W18G39    29.94F
VALPARAISO     MOSUNNY   86  54  33 W12       29.94F
MICHIGAN CITY* SUNNY     81  55  41 NW9       29.95S
LAPORTE*       SUNNY     86  55  35 NW9       29.95F
KNOX*          SUNNY     84  54  34 N14       29.93S
SOUTH BEND     SUNNY     85  54  34 NW17G24   29.94F
ELKHART*       SUNNY     84  50  30 W14G23    29.94F
GOSHEN         SUNNY     83  54  36 NW15      29.93F
MONTICELLO*    SUNNY     85  60  42 NW18G25   29.95S
LOGANSPORT*    MOSUNNY   86  48  26 W10G20    29.95F
ROCHESTER*     SUNNY     88  54  31 W14G20    29.93F
WARSAW*        PTSUNNY   82  54  36 NW10      29.93F
ANGOLA*        SUNNY     84  54  34 NW12      29.92F
FORT WAYNE     MOSUNNY   82  64  54 W8        29.94F
HUNTINGTON*    MOSUNNY   79  67  67 NW6       29.94F
PERU/GRISSOM   MOSUNNY   85  66  53 W16       29.93F
MARION*        PTSUNNY   82  62  51 W10G22    29.96S HAZE

$$
INZ028>050-312200-
CENTRAL INDIANA

CITY           SKY/WX    TMP DP  RH WIND       PRES   REMARKS
LAFAYETTE      SUNNY     85  57  38 W14G26    29.96S
KOKOMO*        PTSUNNY   81  64  57 W10       29.95F
MUNCIE*        MOSUNNY   84  62  47 W13G28    29.95F
INDIANAPOLIS   MOSUNNY   87  61  41 W20G26    29.98F

$$
MIZ043>046-050>051-056>058-064>065-071>073-077>080-312200-
SOUTHWEST LOWER MICHIGAN

CITY           SKY/WX    TMP DP  RH WIND       PRES   REMARKS
BATTLE CREEK   MOSUNNY   84  55  36 NW20G25   29.91F
BENTON HARBOR  SUNNY     80  61  52 W13G18    29.93F
COLDWATER*     MOSUNNY   82  49  30 W16G22    29.91F
HILLSDALE*     MOSUNNY   84  50  31 NW16G22   29.91S
HOLLAND        SUNNY     81  53  37 NW13G24   29.92F
GRAND RAPIDS   MOSUNNY   82  49  31 W24G31    29.89F
KALAMAZOO      MOSUNNY   84  55  36 W16G25    29.91F
STURGIS*       MOSUNNY   82  55  39 W14G22    29.92F
THREE RIVERS*  FAIR      82  53  35 W17G24    29.92F

$$
OHZ001>008-015>018-024>025-312200-
NORTHWEST OHIO

CITY           SKY/WX    TMP DP  RH WIND       PRES   REMARKS
WAUSEON*       FAIR      84  55  37 NW15G23   29.89S
DEFIANCE       MOSUNNY   87  61  41 W9G17     29.90S
FINDLAY        MOSUNNY   87  60  40 W15       29.90F
TOLEDO EXPRESS MOSUNNY   86  55  34 W16G23    29.87F
TOLEDO METCALF MOSUNNY   87  56  34 W20G26    29.87F
LIMA           CLOUDY    81  57  43 W9        29.93F

$$
AND FOR LAKE MICHIGAN COASTAL AND OPEN LAKE BUOY OBSERVATIONS

STATION/POSITION TEMP    WIND        PRES    VSBY  WAVE
                 AIR SEA DIR/SP/G                  HT/PER
                 (F)     (DEG/KT/KT) (MB)    (MI)  (FT/S)
CALUMET HARBOR    87     270/  9/ 15   N/A
MICHIGAN CITY     79     250/  5/  6   N/A
BURNS HARBOR      80      10/  1/  4 1014.6F
SAINT JOSEPH      76     290/  7/ 10 1014.9R
4 MI NW BRIDGMAN  76 74  340/ 12/ 14   N/A           2/ 4
MICHIGAN CITY     78 75  330/  8/ 10   N/A           1/ 3

$$
&&


USA.gov is the U.S. government's official web portal to all federal, state and local government web resources and services.